Home   Weather   Sarpsborg   Past weeks

Flag for Norway Past Weather in Sarpsborg, Norway — Yesterday and Last 2 Weeks

Now
45 °F

Clear.


Feels Like: 40 °F
Forecast: 41 / 45 °F
Wind: 9 mph from Southwest

Location: Rygge

Current Time: Dec 8, 2016 at 9:04:29 am

Latest Report: Dec 8, 2016 at 8:20 am


Visibility: 10 mi

Pressure: 29.56 "Hg

Humidity: 93%

Dew Point: 43 °F

Location of SarpsborgLocation

Past Weather in Sarpsborg — Graph

°F

Sarpsborg Temperature Yesterday

Maximum temperature yesterday: 43 °F (at 4:50 pm)
Minimum temperature yesterday: 34 °F (at 12:20 am)
Average temperature yesterday: 40 °F

High & Low Weather Summary for the Past Weeks

 TemperatureHumidityPressure
High50 °F (Nov 26, 11:50 am)100% (Nov 23, 8:50 am)30.45 "Hg (Nov 23, 8:50 am)
Low19 °F (Dec 3, 4:50 am)42% (Nov 26, 3:50 pm)29.56 "Hg (Dec 1, 12:50 pm)
Average35 °F78%30.03 "Hg
* Reported Nov 23 7:20 am — Dec 8 7:20 am, Sarpsborg, Weather by CustomWeather, © 2016

Note: Actual official high and low records may vary slightly from our data, if they occured in-between our weather recording intervals... More about our weather records

Advertising

Sarpsborg Weather History for the Previous 24 Hours

Scroll right to see more
 ConditionsComfort  
Time TempWeatherWind HumidityBarometerVisibility
7:20 am
Thu, Dec 8
45 °FQuite cool.13 mph93%29.56 "HgN/A
6:50 am45 °FQuite cool.8 mph100%29.56 "Hg6 mi
6:20 am45 °FPassing clouds.7 mph100%29.59 "Hg4 mi
5:50 am45 °FOvercast.9 mph100%29.56 "Hg3 mi
5:20 am45 °FFog.14 mph100%29.56 "Hg1 mi
4:50 am46 °FLow clouds.15 mph93%29.59 "Hg3 mi
4:20 am46 °FLow clouds.16 mph100%29.59 "Hg2 mi
3:50 am46 °FLow clouds.12 mph100%29.62 "Hg4 mi
3:20 am46 °FLow clouds.7 mph100%29.62 "Hg3 mi
2:20 am45 °FDense fog.3 mph100%29.65 "Hg1 mi
1:50 am45 °FQuite cool.5 mph100%29.65 "Hg0 mi
1:20 am45 °FQuite cool.7 mph100%29.65 "Hg1 mi
12:50 am45 °FQuite cool.7 mph93%29.68 "Hg0 mi
12:20 am43 °FFog.9 mph100%29.68 "Hg0 mi
11:50 pm
Wed, Dec 7
43 °FFog.12 mph100%29.68 "Hg0 mi
11:20 pm43 °FLight snow. Low clouds.12 mph100%29.68 "Hg0 mi
10:50 pm43 °FDrizzle. Low clouds.8 mph100%29.71 "Hg0 mi
10:20 pm43 °FFog.9 mph100%29.71 "Hg0 mi
9:50 pm43 °FFog.10 mph100%29.74 "Hg0 mi
9:20 pm43 °FQuite cool.12 mph93%29.74 "Hg0 mi
8:50 pm43 °FFog.13 mph93%29.74 "Hg1 mi
8:20 pm43 °FMostly cloudy.9 mph93%29.74 "Hg4 mi
7:50 pm43 °FLight rain. Passing clouds.8 mph93%29.74 "Hg5 mi
7:20 pm43 °FLight rain. Fog.10 mph100%29.77 "Hg3 mi
6:50 pm43 °FLight rain. Fog.7 mph100%29.77 "Hg2 mi
6:20 pm43 °FRain. Fog.7 mph100%29.77 "Hg3 mi
5:50 pm43 °FRain. Fog.9 mph100%29.80 "Hg2 mi
5:20 pm43 °FFog.9 mph100%29.80 "Hg1 mi
4:50 pm43 °FLight rain. Low clouds.10 mph93%29.80 "Hg2 mi
4:20 pm41 °FDrizzle. Low clouds.14 mph100%29.83 "Hg6 mi
3:50 pm41 °FLight rain. Low clouds.14 mph93%29.83 "Hg5 mi
3:20 pm39 °FLight rain. Low clouds.14 mph100%29.86 "Hg4 mi
2:50 pm39 °FLight rain. Low clouds.14 mph100%29.89 "Hg4 mi
2:20 pm39 °FRain. Low clouds.14 mph100%29.92 "Hg4 mi
1:50 pm39 °FLight rain. Low clouds.14 mph100%29.95 "Hg3 mi
1:20 pm39 °FRain. Low clouds.15 mph100%29.95 "Hg2 mi
12:50 pm39 °FRain. Low clouds.15 mph100%29.98 "Hg3 mi
12:20 pm39 °FRain. Low clouds.14 mph100%30.01 "Hg3 mi
11:50 am41 °FDrizzle. Fog.13 mph93%30.04 "Hg3 mi
11:20 am41 °FLight rain. Fog.12 mph93%30.07 "Hg3 mi
10:50 am41 °FLight rain. Partly sunny.10 mph93%30.07 "Hg4 mi
10:20 am39 °FLight rain. Partly sunny.8 mph100%30.09 "Hg5 mi
9:50 am39 °FDrizzle. Fog.9 mph100%30.09 "Hg4 mi
9:20 am39 °FLight rain. Partly sunny.9 mph93%30.09 "HgN/A
Weather by CustomWeather, © 2016

See weather overviewHow to use our weather pages